Time,TemperatureF,DewpointF,PressureIn,WindDirection,WindDirectionDegrees,WindSpeedMPH,WindSpeedGustMPH,Humidity,HourlyPrecipIn,Conditions,Clouds,dailyrainin,SoftwareType,DateUTC
2013-03-14 00:12:00,29.0,21.0,-100.00,NNW,328,9.0,17.0,70,0.00,,,-99.99,,2013-03-14 04:12:00,
2013-03-14 00:22:00,29.0,21.0,-100.00,NW,326,8.0,17.0,70,0.00,,,-99.99,,2013-03-14 04:22:00,
2013-03-14 00:32:00,30.0,20.0,-100.00,NW,325,7.0,13.0,67,0.00,,,-99.99,,2013-03-14 04:32:00,
2013-03-14 00:42:00,30.0,20.0,-100.00,NW,325,7.0,13.0,67,0.00,,,-99.99,,2013-03-14 04:42:00,
2013-03-14 00:53:00,30.0,17.0,-100.00,NW,326,8.0,16.0,58,0.00,,,-99.99,,2013-03-14 04:53:00,
2013-03-14 01:02:00,30.0,17.0,-100.00,NW,326,8.0,16.0,58,0.00,,,-99.99,,2013-03-14 05:02:00,
2013-03-14 01:13:00,30.0,17.0,-100.00,NW,326,8.0,16.0,58,0.00,,,-99.99,,2013-03-14 05:13:00,
2013-03-14 01:22:00,31.0,14.0,-100.00,NW,325,14.0,32.0,50,0.00,,,-99.99,,2013-03-14 05:22:00,
2013-03-14 01:33:00,31.0,14.0,-100.00,NW,325,14.0,24.0,51,0.00,,,-99.99,,2013-03-14 05:33:00,
2013-03-14 01:42:00,31.0,14.0,-100.00,NW,325,14.0,24.0,51,0.00,,,-99.99,,2013-03-14 05:42:00,
2013-03-14 01:53:00,30.0,15.0,-100.00,NW,322,13.0,25.0,51,0.00,,,-99.99,,2013-03-14 05:53:00,
2013-03-14 02:02:00,30.0,15.0,-100.00,NW,319,12.0,25.0,53,0.00,,,-99.99,,2013-03-14 06:02:00,
2013-03-14 02:12:00,30.0,15.0,-100.00,NW,319,12.0,25.0,53,0.00,,,-99.99,,2013-03-14 06:12:00,
2013-03-14 02:22:00,30.0,16.0,-100.00,NNW,328,9.0,17.0,55,0.00,,,-99.99,,2013-03-14 06:22:00,
2013-03-14 02:33:00,30.0,17.0,-100.00,NNW,329,11.0,17.0,59,0.00,,,-99.99,,2013-03-14 06:33:00,
2013-03-14 02:42:00,30.0,17.0,-100.00,NNW,329,11.0,17.0,59,0.00,,,-99.99,,2013-03-14 06:42:00,
2013-03-14 02:52:00,29.0,17.0,-100.00,NNW,328,12.0,24.0,60,0.00,,,-99.99,,2013-03-14 06:52:00,
2013-03-14 03:02:00,29.0,18.0,-100.00,NNW,328,11.0,26.0,62,0.00,,,-99.99,,2013-03-14 07:02:00,
2013-03-14 03:12:00,29.0,18.0,-100.00,NNW,328,11.0,26.0,62,0.00,,,-99.99,,2013-03-14 07:12:00,
2013-03-14 03:22:00,29.0,19.0,-100.00,NNW,328,10.0,22.0,65,0.00,,,-99.99,,2013-03-14 07:22:00,
2013-03-14 03:32:00,28.0,19.0,-100.00,NW,326,13.0,24.0,67,0.00,,,-99.99,,2013-03-14 07:32:00,
2013-03-14 03:43:00,28.0,19.0,-100.00,NW,326,13.0,24.0,67,0.00,,,-99.99,,2013-03-14 07:43:00,
2013-03-14 03:52:00,28.0,18.0,-100.00,NW,326,11.0,24.0,64,0.00,,,-99.99,,2013-03-14 07:52:00,
2013-03-14 04:02:00,28.0,17.0,-100.00,NW,323,13.0,28.0,62,0.00,,,-99.99,,2013-03-14 08:02:00,
2013-03-14 04:12:00,28.0,17.0,-100.00,NW,323,13.0,28.0,62,0.00,,,-99.99,,2013-03-14 08:12:00,
2013-03-14 04:22:00,28.0,17.0,-100.00,NW,323,13.0,28.0,62,0.00,,,-99.99,,2013-03-14 08:22:00,
2013-03-14 04:32:00,28.0,17.0,-100.00,NNW,328,11.0,24.0,62,0.00,,,-99.99,,2013-03-14 08:32:00,
2013-03-14 04:42:00,28.0,17.0,-100.00,NNW,328,11.0,24.0,62,0.00,,,-99.99,,2013-03-14 08:42:00,
2013-03-14 04:52:00,28.0,17.0,-100.00,NW,326,13.0,29.0,62,0.00,,,-99.99,,2013-03-14 08:52:00,
2013-03-14 05:02:00,28.0,17.0,-100.00,NW,326,12.0,24.0,62,0.00,,,-99.99,,2013-03-14 09:02:00,
2013-03-14 05:12:00,28.0,17.0,-100.00,NW,326,12.0,24.0,62,0.00,,,-99.99,,2013-03-14 09:12:00,
2013-03-14 05:22:00,28.0,16.0,-100.00,NNW,329,12.0,22.0,61,0.00,,,-99.99,,2013-03-14 09:22:00,
2013-03-14 05:32:00,28.0,16.0,-100.00,NNW,329,12.0,27.0,60,0.00,,,-99.99,,2013-03-14 09:32:00,
2013-03-14 05:42:00,28.0,16.0,-100.00,NNW,329,12.0,27.0,60,0.00,,,-99.99,,2013-03-14 09:42:00,
2013-03-14 05:52:00,28.0,16.0,-100.00,NW,326,12.0,23.0,62,0.00,,,-99.99,,2013-03-14 09:52:00,
2013-03-14 06:02:00,28.0,16.0,-100.00,NW,326,12.0,23.0,62,0.00,,,-99.99,,2013-03-14 10:02:00,
2013-03-14 06:12:00,28.0,16.0,-100.00,NW,326,12.0,23.0,62,0.00,,,-99.99,,2013-03-14 10:12:00,
2013-03-14 06:22:00,28.0,15.0,-100.00,NW,323,13.0,24.0,59,0.00,,,-99.99,,2013-03-14 10:22:00,
2013-03-14 06:32:00,28.0,14.0,-100.00,NW,323,13.0,25.0,56,0.00,,,-99.99,,2013-03-14 10:32:00,
2013-03-14 06:42:00,28.0,15.0,-100.00,NNW,329,12.0,24.0,57,0.00,,,-99.99,,2013-03-14 10:42:00,
2013-03-14 06:52:00,28.0,15.0,-100.00,NNW,329,12.0,24.0,57,0.00,,,-99.99,,2013-03-14 10:52:00,
2013-03-14 07:02:00,28.0,15.0,-100.00,NNW,329,13.0,23.0,58,0.00,,,-99.99,,2013-03-14 11:02:00,
2013-03-14 07:12:00,28.0,15.0,-100.00,NNW,329,13.0,23.0,58,0.00,,,-99.99,,2013-03-14 11:12:00,
2013-03-14 07:22:00,28.0,14.0,-100.00,NNW,329,11.0,24.0,57,0.00,,,-99.99,,2013-03-14 11:22:00,
2013-03-14 07:33:00,28.0,14.0,-100.00,NNW,328,12.0,23.0,55,0.00,,,-99.99,,2013-03-14 11:33:00,
2013-03-14 07:42:00,28.0,14.0,-100.00,NNW,328,12.0,23.0,55,0.00,,,-99.99,,2013-03-14 11:42:00,
2013-03-14 07:53:00,28.0,14.0,-100.00,NNW,329,12.0,28.0,57,0.00,,,-99.99,,2013-03-14 11:53:00,
2013-03-14 08:02:00,27.0,14.0,-100.00,NNW,329,13.0,24.0,57,0.00,,,-99.99,,2013-03-14 12:02:00,
2013-03-14 08:12:00,27.0,14.0,-100.00,NNW,329,13.0,24.0,57,0.00,,,-99.99,,2013-03-14 12:12:00,
2013-03-14 08:22:00,27.0,14.0,-100.00,NNW,328,12.0,22.0,58,0.00,,,-99.99,,2013-03-14 12:22:00,
2013-03-14 08:33:00,27.0,14.0,-100.00,NNW,329,12.0,22.0,57,0.00,,,-99.99,,2013-03-14 12:33:00,
2013-03-14 08:42:00,27.0,14.0,-100.00,NNW,329,12.0,22.0,57,0.00,,,-99.99,,2013-03-14 12:42:00,
2013-03-14 08:52:00,28.0,14.0,-100.00,NNW,329,13.0,23.0,56,0.00,,,-99.99,,2013-03-14 12:52:00,
2013-03-14 09:02:00,28.0,14.0,-100.00,NNW,330,11.0,22.0,54,0.00,,,-99.99,,2013-03-14 13:02:00,
2013-03-14 09:13:00,28.0,14.0,-100.00,NNW,330,11.0,22.0,54,0.00,,,-99.99,,2013-03-14 13:13:00,
2013-03-14 09:22:00,29.0,13.0,-100.00,NNW,330,11.0,20.0,52,0.00,,,-99.99,,2013-03-14 13:22:00,
2013-03-14 09:32:00,29.0,12.0,-100.00,NNW,329,10.0,20.0,49,0.00,,,-99.99,,2013-03-14 13:32:00,
2013-03-14 09:43:00,29.0,12.0,-100.00,NNW,329,10.0,20.0,49,0.00,,,-99.99,,2013-03-14 13:43:00,
2013-03-14 09:52:00,30.0,13.0,-100.00,NNW,328,11.0,22.0,49,0.00,,,-99.99,,2013-03-14 13:52:00,
2013-03-14 10:02:00,31.0,13.0,-100.00,NNW,330,10.0,30.0,47,0.00,,,-99.99,,2013-03-14 14:02:00,
2013-03-14 10:12:00,31.0,13.0,-100.00,NNW,330,10.0,30.0,47,0.00,,,-99.99,,2013-03-14 14:12:00,
2013-03-14 10:22:00,30.0,13.0,-100.00,NNW,328,11.0,24.0,48,0.00,,,-99.99,,2013-03-14 14:22:00,
2013-03-14 10:32:00,29.0,12.0,-100.00,NNW,328,12.0,30.0,48,0.00,,,-99.99,,2013-03-14 14:32:00,
2013-03-14 10:42:00,29.0,12.0,-100.00,NNW,328,12.0,30.0,48,0.00,,,-99.99,,2013-03-14 14:42:00,
2013-03-14 10:53:00,30.0,13.0,-100.00,NNW,328,11.0,28.0,49,0.00,,,-99.99,,2013-03-14 14:53:00,
2013-03-14 11:02:00,30.0,14.0,-100.00,NNW,328,11.0,20.0,50,0.00,,,-99.99,,2013-03-14 15:02:00,
2013-03-14 11:12:00,30.0,14.0,-100.00,NNW,328,11.0,20.0,50,0.00,,,-99.99,,2013-03-14 15:12:00,
2013-03-14 11:22:00,31.0,13.0,-100.00,NNW,329,11.0,29.0,47,0.00,,,-99.99,,2013-03-14 15:22:00,
2013-03-14 11:33:00,32.0,14.0,-100.00,NNW,330,10.0,22.0,46,0.00,,,-99.99,,2013-03-14 15:33:00,
2013-03-14 11:43:00,32.0,14.0,-100.00,NNW,330,10.0,22.0,46,0.00,,,-99.99,,2013-03-14 15:43:00,
2013-03-14 11:52:00,33.0,14.0,-100.00,NNW,329,11.0,20.0,45,0.00,,,-99.99,,2013-03-14 15:52:00,
2013-03-14 12:03:00,34.0,15.0,-100.00,NW,322,14.0,26.0,45,0.00,,,-99.99,,2013-03-14 16:03:00,
2013-03-14 12:13:00,34.0,15.0,-100.00,NW,322,14.0,26.0,45,0.00,,,-99.99,,2013-03-14 16:13:00,
2013-03-14 12:23:00,35.0,14.0,-100.00,NW,325,15.0,31.0,42,0.00,,,-99.99,,2013-03-14 16:23:00,
2013-03-14 12:32:00,36.0,15.0,-100.00,NW,326,14.0,28.0,43,0.00,,,-99.99,,2013-03-14 16:32:00,
2013-03-14 12:42:00,36.0,15.0,-100.00,NW,326,14.0,28.0,43,0.00,,,-99.99,,2013-03-14 16:42:00,
2013-03-14 12:52:00,36.0,14.0,-100.00,NNW,328,15.0,25.0,39,0.00,,,-99.99,,2013-03-14 16:52:00,
2013-03-14 13:02:00,36.0,14.0,-100.00,NW,323,17.0,39.0,39,0.00,,,-99.99,,2013-03-14 17:02:00,
2013-03-14 13:13:00,36.0,14.0,-100.00,NW,323,17.0,39.0,39,0.00,,,-99.99,,2013-03-14 17:13:00,
2013-03-14 13:23:00,37.0,14.0,-100.00,NW,322,17.0,38.0,37,0.00,,,-99.99,,2013-03-14 17:23:00,
2013-03-14 13:33:00,36.0,13.0,-100.00,NW,322,18.0,36.0,37,0.00,,,-99.99,,2013-03-14 17:33:00,
2013-03-14 13:42:00,36.0,13.0,-100.00,NW,322,18.0,36.0,37,0.00,,,-99.99,,2013-03-14 17:42:00,
2013-03-14 13:53:00,39.0,14.0,-100.00,NW,325,16.0,32.0,36,0.00,,,0.00,,2013-03-14 17:53:00,
2013-03-14 14:03:00,38.0,14.0,-100.00,NW,319,17.0,34.0,37,0.00,,,0.00,,2013-03-14 18:03:00,
2013-03-14 14:13:00,38.0,14.0,-100.00,NW,319,17.0,34.0,37,0.00,,,0.00,,2013-03-14 18:13:00,
2013-03-14 14:23:00,39.0,15.0,-100.00,NW,320,15.0,33.0,38,0.00,,,0.00,,2013-03-14 18:23:00,
2013-03-14 14:33:00,39.0,14.0,-100.00,NW,316,19.0,36.0,35,0.00,,,0.00,,2013-03-14 18:33:00,
2013-03-14 14:43:00,39.0,14.0,-100.00,NW,316,19.0,36.0,35,0.00,,,0.00,,2013-03-14 18:43:00,
2013-03-14 14:53:00,39.0,14.0,-100.00,NW,322,16.0,30.0,35,0.00,,,0.00,,2013-03-14 18:53:00,
2013-03-14 15:03:00,40.0,14.0,-100.00,NW,325,17.0,37.0,35,0.00,,,0.00,,2013-03-14 19:03:00,
2013-03-14 15:12:00,40.0,14.0,-100.00,NW,325,17.0,37.0,35,0.00,,,0.00,,2013-03-14 19:12:00,
2013-03-14 15:23:00,41.0,14.0,-100.00,NW,323,14.0,28.0,32,0.00,,,0.00,,2013-03-14 19:23:00,
2013-03-14 15:32:00,40.0,13.0,-100.00,NNW,328,13.0,27.0,32,0.00,,,0.00,,2013-03-14 19:32:00,
2013-03-14 15:42:00,40.0,13.0,-100.00,NNW,328,13.0,27.0,32,0.00,,,0.00,,2013-03-14 19:42:00,
2013-03-14 15:52:00,41.0,13.0,-100.00,NW,315,16.0,31.0,32,0.00,,,0.00,,2013-03-14 19:52:00,
2013-03-14 16:02:00,41.0,13.0,-100.00,NW,325,14.0,30.0,32,0.00,,,0.00,,2013-03-14 20:02:00,
2013-03-14 16:12:00,41.0,13.0,-100.00,NW,325,14.0,30.0,32,0.00,,,0.00,,2013-03-14 20:12:00,
2013-03-14 16:22:00,43.0,14.0,-100.00,NNW,328,11.0,20.0,30,0.00,,,0.00,,2013-03-14 20:22:00,
2013-03-14 16:32:00,41.0,12.0,-100.00,NW,320,15.0,30.0,30,0.00,,,0.00,,2013-03-14 20:32:00,
2013-03-14 16:42:00,41.0,12.0,-100.00,NW,320,15.0,30.0,30,0.00,,,0.00,,2013-03-14 20:42:00,
2013-03-14 16:52:00,40.0,12.0,-100.00,NW,323,14.0,26.0,31,0.00,,,0.00,,2013-03-14 20:52:00,
2013-03-14 17:03:00,42.0,15.0,-100.00,NW,325,13.0,26.0,33,0.00,,,0.00,,2013-03-14 21:03:00,
2013-03-14 17:13:00,42.0,15.0,-100.00,NW,325,13.0,26.0,33,0.00,,,0.00,,2013-03-14 21:13:00,
2013-03-14 17:23:00,41.0,13.0,-100.00,NNW,329,12.0,27.0,31,0.00,,,0.00,,2013-03-14 21:23:00,
2013-03-14 17:33:00,41.0,13.0,-100.00,NNW,328,13.0,26.0,32,0.00,,,0.00,,2013-03-14 21:33:00,
2013-03-14 17:43:00,41.0,13.0,-100.00,NNW,328,13.0,26.0,32,0.00,,,0.00,,2013-03-14 21:43:00,
2013-03-14 17:53:00,41.0,13.0,-100.00,NNW,328,14.0,31.0,32,0.00,,,0.00,,2013-03-14 21:53:00,
2013-03-14 18:04:00,41.0,13.0,-100.00,NNW,328,13.0,27.0,32,0.00,,,0.00,,2013-03-14 22:04:00,
2013-03-14 18:13:00,41.0,13.0,-100.00,NNW,328,13.0,27.0,32,0.00,,,0.00,,2013-03-14 22:13:00,
2013-03-14 18:23:00,41.0,14.0,-100.00,NW,326,13.0,26.0,33,0.00,,,0.00,,2013-03-14 22:23:00,
2013-03-14 18:33:00,40.0,14.0,-100.00,NNW,328,11.0,21.0,33,0.00,,,0.00,,2013-03-14 22:33:00,
2013-03-14 18:42:00,40.0,14.0,-100.00,NNW,328,11.0,21.0,33,0.00,,,0.00,,2013-03-14 22:42:00,
2013-03-14 18:53:00,40.0,13.0,-100.00,NNW,330,10.0,23.0,32,0.00,,,0.00,,2013-03-14 22:53:00,
2013-03-14 19:03:00,39.0,13.0,-100.00,NNW,332,10.0,19.0,34,0.00,,,0.00,,2013-03-14 23:03:00,
2013-03-14 19:12:00,39.0,13.0,-100.00,NNW,332,10.0,19.0,34,0.00,,,0.00,,2013-03-14 23:12:00,
2013-03-14 19:23:00,39.0,14.0,-100.00,NW,326,11.0,20.0,36,0.00,,,0.00,,2013-03-14 23:23:00,
2013-03-14 19:33:00,38.0,14.0,-100.00,NNW,330,9.0,25.0,37,0.00,,,0.00,,2013-03-14 23:33:00,
2013-03-14 19:43:00,38.0,14.0,-100.00,NNW,330,9.0,25.0,37,0.00,,,0.00,,2013-03-14 23:43:00,
2013-03-14 19:54:00,37.0,14.0,-100.00,NNW,335,7.0,13.0,39,0.00,,,0.00,,2013-03-14 23:54:00,
2013-03-14 20:02:00,37.0,15.0,-100.00,NNW,330,7.0,12.0,40,0.00,,,0.00,,2013-03-15 00:02:00,
2013-03-14 20:12:00,37.0,15.0,-100.00,NNW,330,7.0,12.0,40,0.00,,,0.00,,2013-03-15 00:12:00,
2013-03-14 20:23:00,37.0,15.0,-100.00,NNW,330,8.0,15.0,40,0.00,,,0.00,,2013-03-15 00:23:00,
2013-03-14 20:32:00,36.0,15.0,-100.00,NNW,330,8.0,16.0,41,0.00,,,0.00,,2013-03-15 00:32:00,
2013-03-14 20:42:00,36.0,15.0,-100.00,NNW,330,8.0,16.0,41,0.00,,,0.00,,2013-03-15 00:42:00,
2013-03-14 20:52:00,36.0,15.0,-100.00,NNW,330,7.0,13.0,41,0.00,,,0.00,,2013-03-15 00:52:00,
2013-03-14 21:02:00,36.0,15.0,-100.00,NNW,333,7.0,11.0,42,0.00,,,0.00,,2013-03-15 01:02:00,
2013-03-14 21:12:00,36.0,15.0,-100.00,NNW,333,7.0,11.0,42,0.00,,,0.00,,2013-03-15 01:12:00,
2013-03-14 21:23:00,35.0,15.0,-100.00,NW,323,8.0,13.0,44,0.00,,,0.00,,2013-03-15 01:23:00,
2013-03-14 21:32:00,35.0,15.0,-100.00,NW,325,7.0,11.0,44,0.00,,,0.00,,2013-03-15 01:32:00,
2013-03-14 21:42:00,35.0,15.0,-100.00,NW,325,7.0,11.0,44,0.00,,,0.00,,2013-03-15 01:42:00,
2013-03-14 21:52:00,35.0,15.0,-100.00,NW,325,8.0,11.0,45,0.00,,,0.00,,2013-03-15 01:52:00,
2013-03-14 22:03:00,35.0,16.0,-100.00,NW,323,9.0,13.0,46,0.00,,,0.00,,2013-03-15 02:03:00,
2013-03-14 22:12:00,35.0,16.0,-100.00,NW,323,9.0,13.0,46,0.00,,,0.00,,2013-03-15 02:12:00,
2013-03-14 22:22:00,35.0,16.0,-100.00,NW,325,9.0,15.0,46,0.00,,,0.00,,2013-03-15 02:22:00,
2013-03-14 22:32:00,34.0,16.0,-100.00,NNW,329,7.0,12.0,46,0.00,,,0.00,,2013-03-15 02:32:00,
2013-03-14 22:42:00,34.0,16.0,-100.00,NNW,329,7.0,12.0,46,0.00,,,0.00,,2013-03-15 02:42:00,
2013-03-14 22:52:00,34.0,16.0,-100.00,NNW,330,7.0,12.0,47,0.00,,,0.00,,2013-03-15 02:52:00,
2013-03-14 23:02:00,35.0,15.0,-100.00,NNW,332,8.0,14.0,45,0.00,,,0.00,,2013-03-15 03:02:00,
2013-03-14 23:13:00,35.0,15.0,-100.00,NNW,332,8.0,14.0,45,0.00,,,0.00,,2013-03-15 03:13:00,
2013-03-14 23:22:00,35.0,16.0,-100.00,NNW,330,9.0,18.0,45,0.00,,,0.00,,2013-03-15 03:22:00,
2013-03-14 23:33:00,35.0,15.0,-100.00,NNW,329,9.0,14.0,44,0.00,,,0.00,,2013-03-15 03:33:00,
2013-03-14 23:43:00,35.0,15.0,-100.00,NNW,329,9.0,14.0,44,0.00,,,0.00,,2013-03-15 03:43:00,
2013-03-14 23:53:00,35.0,16.0,-100.00,NNW,329,8.0,13.0,44,0.00,,,0.00,,2013-03-15 03:53:00,